Stations météo

réclame
Mon MeteoGroup
Biscarosse, France (7503): Température de l'air & dewpoint: 22.02.2020 18:00:00 - 28.02.2020 18:00:00 (CET)Biscarosse, France (7503): Température de l'air 5cm: 22.02.2020 18:00:00 - 28.02.2020 18:00:00 (CET)Biscarosse, France (7503): Température de l'air -20cm & Température de l'air -100cm: 22.02.2020 18:00:00 - 28.02.2020 18:00:00 (CET)Biscarosse, France (7503): Vitesse du vent & gusts: 22.02.2020 18:00:00 - 28.02.2020 18:00:00 (CET)Biscarosse, France (7503): Direction du vent: 22.02.2020 18:00:00 - 28.02.2020 18:00:00 (CET)Biscarosse, France (7503): reduced air pressure: 22.02.2020 18:00:00 - 28.02.2020 18:00:00 (CET)Biscarosse, France (7503): visibility: 22.02.2020 18:00:00 - 28.02.2020 18:00:00 (CET)Biscarosse, France (7503): Ensoleillement: 22.02.2020 18:00:00 - 28.02.2020 18:00:00 (CET)Biscarosse, France (7503): Quantités de précipitations: 22.02.2020 18:00:00 - 28.02.2020 18:00:00 (CET)
Date & Time tt [°C] td [°C] tt 5cm [°C] tt -20cm [°C] tt -100cm [°C] ff [km/h] ff [knt] fx [km/h] fx [knt] dd ppp [hPa] vv [km] sd [min] rr [mm]
28.02.2020 18:00:00 13,3 10,1 13,5 12,9 12,0 5 3 8 5 ESE 1015,6 13 8 0,0
28.02.2020 17:00:00 13,7 9,5 14,8 12,7 12,0 4 2 15 8 S 1016,6 11 0 0,0
28.02.2020 16:00:00 14,4 9,4 15,8 12,4 12,0 12 7 21 11 SSW 1017,8 9 15 0,0
28.02.2020 15:00:00 13,8 11,0 14,9 12,1 12,0 16 9 22 12 SSW 1018,7 8 0 0,0
28.02.2020 14:00:00 13,4 11,1 14,8 11,7 12,0 18 10 27 15 SSW 1019,4 7 0 0,0
28.02.2020 13:00:00 13,8 11,3 16,2 11,4 12,0 23 12 27 15 SW 1020,3 7 11 0,0
28.02.2020 12:00:00 14,1 12,0 13,2 11,0 12,0 22 12 28 15 SW 1020,4 6 29 0,0
28.02.2020 11:00:00 12,5 11,2 12,9 10,9 12,0 22 12 27 14 SW 1020,7 4,4 0 0,0
28.02.2020 10:00:00 12,5 11,6 12,5 10,8 12,0 20 11 29 15 WSW 1020,8 4,5 7 0,0
28.02.2020 09:00:00 12,2 11,6 11,6 10,7 12,1 25 14 34 18 W 1021,0 4,2 0 0,0
28.02.2020 08:00:00 12,0 11,7 11,0 10,7 12,1 22 12 30 16 W 1020,5 3,6 0 0,0
28.02.2020 07:00:00 11,2 11,0 9,6 10,7 12,1 16 9 23 13 W 1020,3 3,1 0 0,4
28.02.2020 06:00:00 9,8 9,5 9,4 10,8 12,1 7 4 16 9 SE 1020,4 7 0 0,0
28.02.2020 05:00:00 9,6 9,1 9,3 10,8 12,1 5 3 10 6 ESE 1020,5 3,5 0 0,2
28.02.2020 04:00:00 9,6 9,1 9,2 10,8 12,0 4 2 7 4 SE 1020,9 1,9 0 0,4
28.02.2020 03:00:00 9,7 8,9 9,2 10,8 12,1 5 3 15 8 WSW 1021,3 2,9 0 0,2
28.02.2020 02:00:00 9,7 9,1 8,7 10,9 12,1 14 7 17 9 W 1021,3 8 0 0,0
28.02.2020 01:00:00 9,2 8,6 8,0 11,1 12,1 5 3 9 5 S 1021,3 3,4 0 0,2
28.02.2020 00:00:00 8,6 7,7 7,1 11,3 12,1 3 2 14 7 SSE 1021,5 3,5 0 0,0
27.02.2020 23:00:00 10,1 8,2 8,0 11,4 12,1 12 7 19 10 NW 1021,5 3,9 0 0,0
27.02.2020 22:00:00 10,5 8,6 8,9 11,6 12,1 15 8 25 13 NW 1020,9 6 0 0,0
27.02.2020 21:00:00 10,6 8,5 9,2 11,8 12,1 19 10 26 14 NNW 1020,6 6 0 0,0
27.02.2020 20:00:00 11,5 9,4 10,2 11,8 12,1 19 11 31 17 NW 1019,7 7 0 0,0
27.02.2020 19:00:00 11,5 10,1 10,5 11,8 12,1 23 12 30 16 NW 1018,5 4,8 0 0,0
27.02.2020 18:00:00 12,0 11,2 11,6 11,7 12,1 29 16 52 28 WNW 1017,4 3,0 0 0,2
27.02.2020 17:00:00 12,6 11,5 12,6 11,5 12,1 36 19 60 33 W 1016,2 5 7 0,0
27.02.2020 16:00:00 12,5 11,7 12,4 11,3 12,1 46 25 56 31 WNW 1015,6 3,6 0 0,4
27.02.2020 15:00:00 12,9 12,3 12,5 11,2 12,2 41 22 68 37 W 1014,6 3,7 0 0,2
27.02.2020 14:00:00 12,7 12,2 12,5 11,0 12,2 49 27 69 37 W 1013,9 2,1 0 0,4
27.02.2020 13:00:00 12,6 12,1 12,2 10,9 12,2 49 26 77 41 W 1013,8 2,7 0 0,4
27.02.2020 12:00:00 12,4 11,6 11,8 10,8 12,2 59 32 79 43 W 1013,0 2,8 0 0,4
27.02.2020 11:00:00 13,1 10,6 11,8 10,7 12,2 59 32 83 45 W 1012,3 4,8 0 0,0
27.02.2020 10:00:00 13,0 10,2 11,2 10,6 12,2 59 32 88 48 W 1012,0 6 0 0,0
27.02.2020 09:00:00 12,6 10,3 11,1 10,6 12,2 63 34 85 46 W 1011,6 6 0 2,6
27.02.2020 08:00:00 11,9 10,6 10,9 10,5 12,2 61 33 82 44 W 1010,5 2,6 0 1,5
27.02.2020 07:00:00 12,1 9,7 9,5 10,6 12,2 55 30 77 41 WSW 1010,3 15 0 0,8
27.02.2020 06:00:00 9,9 9,3 9,3 10,6 12,3 31 17 57 31 SSW 1010,9 3,1 0 1,4
27.02.2020 05:00:00 9,8 9,2 9,4 10,6 12,3 41 22 54 29 SSW 1012,2 4,9 0 2,2
27.02.2020 04:00:00 10,1 9,3 9,5 10,7 12,2 37 20 50 27 SSW 1013,2 3,9 0 1,4
27.02.2020 03:00:00 10,2 9,3 9,1 10,7 12,2 31 17 41 22 SW 1015,0 6 0 0,0
27.02.2020 02:00:00 9,8 8,6 8,7 10,8 12,3 30 16 44 24 WSW 1016,8 10 0 0,4
27.02.2020 01:00:00 10,5 7,4 9,3 10,9 12,3 29 16 36 20 WSW 1017,5 13 0 0,0
27.02.2020 00:00:00 10,5 6,8 8,8 11,0 12,3 33 18 42 23 W 1018,8 13 0 0,0
26.02.2020 23:00:00 9,9 7,3 8,3 11,1 12,3 28 15 37 20 W 1019,6 9 0 0,2
26.02.2020 22:00:00 9,6 7,5 8,1 11,2 12,3 20 11 35 19 W 1020,1 11 0 0,2
26.02.2020 21:00:00 9,8 6,9 8,1 11,4 12,3 27 15 54 29 W 1020,3 11 0 0,2
26.02.2020 20:00:00 10,4 6,2 9,2 11,5 12,3 31 17 46 25 W 1020,4 12 0 0,0
26.02.2020 19:00:00 10,1 5,1 8,6 11,6 12,3 38 20 47 25 WNW 1020,3 18 0 0,0
26.02.2020 18:00:00 9,3 6,6 7,4 11,6 12,3 28 15 74 40 NW 1020,3 12 0 0,2
26.02.2020 17:00:00 10,1 6,1 9,0 11,5 12,3 34 18 54 29 W 1020,2 15 18 0,0
26.02.2020 16:00:00 10,1 5,5 8,4 11,3 12,3 34 19 53 28 WNW 1020,3 16 20 0,2
26.02.2020 15:00:00 10,5 6,6 10,9 11,1 12,3 31 17 51 28 NNW 1020,3 13 24 0,0
26.02.2020 14:00:00 8,8 6,8 8,4 10,8 12,3 25 13 74 40 NW 1020,5 12 19 1,2
26.02.2020 13:00:00 9,1 6,2 8,2 10,6 12,3 39 21 67 36 NW 1020,9 9 29 0,4
26.02.2020 12:00:00 10,1 6,2 9,8 10,5 12,3 38 21 63 34 NW 1020,8 8 2 0,2
26.02.2020 11:00:00 10,5 4,8 8,6 10,5 12,3 41 22 67 36 NW 1020,3 14 32 0,0
26.02.2020 10:00:00 10,4 4,7 7,5 10,5 12,4 48 26 74 40 NW 1019,5 13 26 0,0
26.02.2020 09:00:00 8,7 6,7 7,7 10,6 12,4 52 28 77 42 WNW 1018,7 7 0 0,4
26.02.2020 08:00:00 9,4 6,5 8,0 10,7 12,3 52 28 80 43 NW 1017,7 10 0 0,0
26.02.2020 07:00:00 10,5 6,3 7,8 10,8 12,4 52 28 74 40 WNW 1016,9 11 0 0,0
26.02.2020 06:00:00 10,1 6,8 7,6 11,0 12,4 50 27 94 51 WNW 1016,6 10 0 0,2
26.02.2020 05:00:00 9,8 6,1 7,3 11,1 12,3 54 29 89 48 WNW 1016,7 12 0 1,2
26.02.2020 04:00:00 10,3 7,4 8,3 11,2 12,4 50 27 66 35 W 1016,7 13 0 0,8
26.02.2020 03:00:00 10,8 6,5 9,7 11,3 12,4 43 23 67 36 W 1017,2 13 0 0,0
26.02.2020 02:00:00 10,6 6,3 7,9 11,5 12,3 48 26 61 33 W 1017,4 13 0 0,0
26.02.2020 01:00:00 9,4 6,8 7,9 11,6 12,3 53 29 92 50 WNW 1017,7 14 0 0,2
26.02.2020 00:00:00 9,4 6,8 8,2 11,7 12,3 52 28 77 42 WNW 1017,9 8 0 0,2
25.02.2020 23:00:00 10,7 6,8 8,6 11,9 12,3 40 21 58 32 WNW 1017,9 13 0 0,0
25.02.2020 22:00:00 9,6 8,4 8,7 12,1 12,3 46 25 78 42 WNW 1018,1 5 0 1,8
25.02.2020 21:00:00 10,6 8,7 8,9 12,3 12,3 42 23 80 43 W 1017,9 13 0 1,2
25.02.2020 20:00:00 10,6 7,5 9,0 12,4 12,3 42 23 63 34 W 1018,0 10 0 0,0
25.02.2020 19:00:00 11,3 6,6 10,5 12,5 12,3 46 25 56 30 W 1017,5 17 3 0,0
25.02.2020 18:00:00 11,5 7,0 11,1 12,6 12,3 41 22 56 31 WNW 1017,1 18 22 0,0
25.02.2020 17:00:00 12,1 8,6 11,4 12,5 12,3 40 22 50 27 W 1016,8 16 3 0,0
25.02.2020 16:00:00 12,0 8,3 11,3 12,4 12,3 40 22 49 26 W 1016,6 17 7 0,0
25.02.2020 15:00:00 11,0 9,7 11,1 12,3 12,3 35 19 51 28 WNW 1016,8 8 0 0,2
25.02.2020 14:00:00 11,5 11,0 11,9 12,2 12,3 35 19 47 25 WNW 1016,8 4,3 0 0,6
25.02.2020 13:00:00 11,9 11,4 12,2 12,0 12,3 39 21 48 26 W 1017,2 3,4 0 0,4
25.02.2020 12:00:00 12,3 11,8 12,1 11,9 12,3 36 19 47 26 WSW 1017,5 6 1 0,0
25.02.2020 11:00:00 12,0 11,5 12,0 11,8 12,3 36 19 49 26 W 1017,7 5 1 0,4
25.02.2020 10:00:00 11,9 11,4 11,4 11,8 12,3 39 21 55 30 W 1018,1 6 0 0,2
25.02.2020 09:00:00 11,5 11,0 11,2 11,8 12,3 45 24 63 34 WSW 1018,1 6 0 0,4
25.02.2020 08:00:00 11,6 11,1 11,2 11,8 12,3 42 23 55 30 W 1018,1 3,9 0 0,4
25.02.2020 07:00:00 11,6 11,1 11,1 11,8 12,3 30 16 46 25 WSW 1018,4 6 0 0,6
25.02.2020 06:00:00 11,7 10,6 11,0 11,8 12,3 40 22 53 29 W 1018,7 6 0 0,0
25.02.2020 05:00:00 12,0 9,9 11,3 11,9 12,3 38 21 49 26 WSW 1018,8 11 0 0,0
25.02.2020 04:00:00 11,9 9,3 11,3 11,9 12,3 32 17 42 23 WSW 1019,2 15 0 0,0
25.02.2020 03:00:00 11,7 8,5 11,1 12,0 12,3 33 18 41 22 WSW 1019,9 17 0 0,0
25.02.2020 02:00:00 11,6 8,6 11,0 12,0 12,3 31 17 38 21 WSW 1020,6 18 0 0,0
25.02.2020 01:00:00 11,4 7,7 10,7 12,2 12,3 30 16 40 22 WSW 1021,3 20 0 0,0
25.02.2020 00:00:00 11,1 7,0 9,8 12,3 12,3 31 17 41 22 WSW 1022,2 20 0 0,0
24.02.2020 23:00:00 10,8 7,3 9,8 12,4 12,3 31 17 38 21 WSW 1022,5 18 0 0,0
24.02.2020 22:00:00 10,8 6,9 10,1 12,5 12,3 21 11 34 18 WSW 1023,1 15 0 0,0
24.02.2020 21:00:00 10,7 7,2 10,1 12,6 12,3 27 15 40 21 W 1023,3 13 0 0,0
24.02.2020 20:00:00 10,5 7,4 10,2 12,6 12,3 22 12 36 19 WNW 1023,4 12 0 0,0
24.02.2020 19:00:00 10,3 7,7 10,1 12,6 12,3 24 13 37 20 W 1023,6 13 0 0,0
24.02.2020 18:00:00 9,9 7,8 9,7 12,5 12,3 23 13 33 18 W 1023,5 11 0 0,0
24.02.2020 17:00:00 8,8 6,6 10,0 12,3 12,3 15 8 22 12 WSW 1023,9 12 10 0,0
24.02.2020 16:00:00 8,8 6,6 11,0 12,0 12,3 13 7 22 12 W 1024,2 13 26 0,0
24.02.2020 15:00:00 9,6 6,5 13,3 11,7 12,3 10 5 16 9 WNW 1024,7 11 17 0,0
24.02.2020 14:00:00 8,9 6,5 12,9 11,4 12,3 12 6 16 9 NW 1025,9 11 6 0,0
24.02.2020 13:00:00 8,7 6,7 10,0 11,2 12,3 5 3 11 6 ESE 1026,7 19 7 0,0
24.02.2020 12:00:00 7,1 6,2 8,3 11,1 12,3 4 2 14 8 SE 1027,4 11 0 0,0
24.02.2020 11:00:00 6,7 5,8 7,7 11,2 12,3 7 4 14 8 ESE 1028,2 3,5 0 0,0
24.02.2020 10:00:00 6,9 5,8 7,5 11,3 12,3 5 3 17 9 SE 1028,7 6 0 0,0
24.02.2020 09:00:00 7,3 5,8 7,6 11,3 12,3 6 3 13 7 SSE 1028,6 15 0 0,0
24.02.2020 08:00:00 7,7 5,8 7,7 11,4 12,3 5 3 11 6 ESE 1028,7 18 0 0,0
24.02.2020 07:00:00 8,0 6,3 7,5 11,5 12,3 4 2 9 5 ESE 1029,2 19 0 0,0
24.02.2020 06:00:00 8,1 6,7 7,8 11,7 12,3 6 3 10 5 SE 1029,6 19 0 0,0
24.02.2020 05:00:00 8,3 6,9 8,1 11,7 12,2 2 1 7 4 ESE 1029,8 18 0 0,0
24.02.2020 04:00:00 8,6 7,1 8,0 11,9 12,2 4 2 10 5 SE 1030,4 20 0 0,0
24.02.2020 03:00:00 8,9 7,0 8,1 11,9 12,2 6 4 14 8 W 1031,0 20 0 0,0
24.02.2020 02:00:00 9,2 7,3 8,2 12,1 12,2 7 4 16 9 W 1031,8 20 0 0,0
24.02.2020 01:00:00 9,3 7,4 8,7 12,3 12,2 8 4 16 9 WSW 1032,3 20 0 0,0
24.02.2020 00:00:00 9,1 7,9 7,4 12,5 12,2 9 5 17 9 WSW 1032,9 16 0 0,0
23.02.2020 23:00:00 8,8 8,0 5,6 12,7 12,2 9 5 16 9 W 1033,5 16 0 0,0
23.02.2020 22:00:00 8,2 7,4 5,0 12,9 12,2 10 5 15 8 WNW 1033,7 9 0 0,0
23.02.2020 21:00:00 6,7 5,5 4,9 13,2 12,2 10 6 13 7 W 1033,7 6 0 0,0
23.02.2020 20:00:00 8,2 6,8 6,3 13,4 12,2 4 2 10 5 S 1033,5 7 0 0,0
23.02.2020 19:00:00 9,5 7,4 7,4 13,5 12,2 8 4 14 8 WNW 1033,3 9 2 0,0
23.02.2020 18:00:00 10,6 7,8 10,5 13,4 12,2 7 4 16 9 WNW 1033,3 16 12 0,0
23.02.2020 17:00:00 11,8 7,7 14,1 13,1 12,2 10 5 15 8 WNW 1033,4 20 27 0,0
23.02.2020 16:00:00 12,4 7,9 15,6 12,7 12,2 10 6 19 10 W 1033,4 18 16 0,0
23.02.2020 15:00:00 13,1 8,6 16,6 12,2 12,2 9 5 17 9 WNW 1033,6 17 26 0,0
23.02.2020 14:00:00 12,9 8,6 17,9 11,7 12,2 10 6 18 10 W 1033,9 20 34 0,0
23.02.2020 13:00:00 13,5 8,1 18,4 11,2 12,2 11 6 16 9 WSW 1034,7 20 49 0,0
23.02.2020 12:00:00 13,6 8,6 15,3 10,9 12,2 12 6 18 10 SW 1034,9 19 38 0,0
23.02.2020 11:00:00 11,9 8,4 13,3 10,7 12,2 11 6 21 11 SW 1034,7 19 12 0,0
23.02.2020 10:00:00 10,7 8,8 9,9 10,7 12,2 6 3 15 8 S 1034,4 15 24 0,0
23.02.2020 09:00:00 9,2 8,1 8,6 10,8 12,2 6 4 10 6 SSE 1033,9 20 0 0,0
23.02.2020 08:00:00 8,9 8,0 8,6 10,8 12,2 5 3 8 4 SSE 1033,6 18 0 0,0
23.02.2020 07:00:00 8,9 8,0 8,1 10,9 12,2 4 2 8 5 ESE 1033,6 19 0 0,0
23.02.2020 06:00:00 8,8 7,9 8,1 11,0 12,2 5 3 8 4 SE 1033,3 19 0 0,0
23.02.2020 05:00:00 8,7 7,8 8,0 11,0 12,2 5 3 9 5 ESE 1033,3 20 0 0,0
23.02.2020 04:00:00 8,4 7,8 7,6 11,2 12,2 5 3 9 5 SE 1033,7 20 0 0,0
23.02.2020 03:00:00 8,2 7,8 7,0 11,4 12,2 6 4 11 6 SE 1034,0 20 0 0,0
23.02.2020 02:00:00 7,7 7,3 5,7 11,6 12,2 8 5 11 6 SE 1034,6 10 0 0,0
23.02.2020 01:00:00 7,2 6,8 5,0 11,9 12,2 9 5 11 6 SE 1035,2 8 0 0,0
23.02.2020 00:00:00 8,0 7,6 5,1 12,2 12,2 7 4 10 6 ESE 1035,4 10 0 0,0
22.02.2020 23:00:00 7,8 7,0 5,3 12,4 12,2 6 3 8 5 ESE 1035,5 10 0 0,0
22.02.2020 22:00:00 8,2 7,4 6,4 12,7 12,2 7 4 9 5 E 1035,6 8 0 0,0
22.02.2020 21:00:00 8,9 7,8 7,4 12,9 12,2 7 4 21 11 ENE 1035,6 4,6 0 0,0
22.02.2020 20:00:00 10,3 8,7 8,3 13,0 12,2 15 8 21 11 NNW 1035,2 6 0 0,0
22.02.2020 19:00:00 11,1 9,4 9,3 12,9 12,2 11 6 13 7 NW 1034,6 3,8 3 0,0
22.02.2020 18:00:00 12,4 9,6 12,1 12,8 12,2 11 6 18 10 NW 1034,1 13 45 0,0

tt = Température de l'air
td = dewpoint
tt 5cm = Température de l'air 5cm
tt -20cm = Température de l'air -20cm
tt -100cm = Température de l'air -100cm
ff = Vitesse du vent
fx = gusts
dd = Direction du vent
ppp = reduced air pressure
vv = visibility
sd = Ensoleillement
rr = Quantités de précipitations

stations d'obs. à proximité